DAL143 KTUS-KSEA

Flight info

Callsign DAL143
Flight time 2h 49m
Altitude 36000
Route BURRO5 BBALL CHILY Q15 LOMIA LOKEY LKV HAWKZ8
Aircraft B752/M-L/LB1

Departure

Time 2026-05-07 17:33
Airport Tucson International Airport (KTUS)

Arrival

Time 2026-05-07 20:23
Airport Seattle–Tacoma International Airport (KSEA)
Time Latitude Longitude Altitude Speed Heading
2026-05-07 17:14 32.11849 -110.93684 2610 ft 0 kts 354°
2026-05-07 17:23 32.11847 -110.93684 2610 ft 1 kts 354°
2026-05-07 17:24 32.11832 -110.93682 2610 ft 2 kts 354°
2026-05-07 17:24 32.11817 -110.93681 2611 ft 2 kts 348°
2026-05-07 17:24 32.11805 -110.93671 2611 ft 2 kts 309°
2026-05-07 17:24 32.11800 -110.93662 2611 ft 1 kts 296°
2026-05-07 17:25 32.11794 -110.93645 2611 ft 2 kts 282°
2026-05-07 17:25 32.11792 -110.93629 2611 ft 2 kts 264°
2026-05-07 17:25 32.11796 -110.93612 2611 ft 1 kts 247°
2026-05-07 17:25 32.11798 -110.93606 2611 ft 1 kts 242°
2026-05-07 17:26 32.11799 -110.93604 2611 ft 0 kts 243°
2026-05-07 17:28 32.11797 -110.93609 2611 ft 3 kts 238°
2026-05-07 17:28 32.11773 -110.93641 2612 ft 7 kts 226°
2026-05-07 17:28 32.11742 -110.93700 2612 ft 9 kts 270°
2026-05-07 17:28 32.11765 -110.93760 2610 ft 6 kts 277°
2026-05-07 17:29 32.11757 -110.93819 2609 ft 9 kts 259°
2026-05-07 17:29 32.11776 -110.93892 2608 ft 11 kts 316°
2026-05-07 17:29 32.11838 -110.93963 2607 ft 14 kts 315°
2026-05-07 17:29 32.11925 -110.94064 2604 ft 20 kts 316°
2026-05-07 17:30 32.12034 -110.94190 2600 ft 23 kts 315°
2026-05-07 17:30 32.12151 -110.94328 2595 ft 23 kts 315°
2026-05-07 17:30 32.12266 -110.94463 2590 ft 23 kts 315°
2026-05-07 17:30 32.12371 -110.94587 2585 ft 14 kts 315°
2026-05-07 17:31 32.12413 -110.94653 2583 ft 6 kts 267°
2026-05-07 17:31 32.12397 -110.94694 2583 ft 5 kts 240°
2026-05-07 17:31 32.12376 -110.94726 2583 ft 4 kts 225°
2026-05-07 17:31 32.12352 -110.94752 2583 ft 3 kts 211°
2026-05-07 17:32 32.12303 -110.94743 2584 ft 12 kts 152°
2026-05-07 17:32 32.12237 -110.94673 2586 ft 9 kts 133°
2026-05-07 17:32 32.12184 -110.94609 2589 ft 24 kts 135°
2026-05-07 17:32 32.12021 -110.94425 2596 ft 74 kts 134°
2026-05-07 17:33 32.11227 -110.93487 2627 ft 163 kts 135°
2026-05-07 17:33 32.10355 -110.92457 3011 ft 191 kts 135°
2026-05-07 17:33 32.09360 -110.91295 3615 ft 216 kts 135°
2026-05-07 17:33 32.08288 -110.90048 4598 ft 223 kts 134°
2026-05-07 17:34 32.07181 -110.88751 5587 ft 230 kts 133°
2026-05-07 17:34 32.06076 -110.87458 6687 ft 230 kts 133°
2026-05-07 17:34 32.04940 -110.86129 7503 ft 233 kts 133°
2026-05-07 17:34 32.03756 -110.84740 8244 ft 250 kts 133°
2026-05-07 17:35 32.02512 -110.83285 9126 ft 262 kts 133°
2026-05-07 17:35 32.01049 -110.81982 9959 ft 279 kts 154°
2026-05-07 17:35 31.99077 -110.81496 10635 ft 305 kts 179°
2026-05-07 17:35 31.96934 -110.81936 11207 ft 321 kts 197°
2026-05-07 17:36 31.94934 -110.83211 11746 ft 338 kts 218°
2026-05-07 17:36 31.93368 -110.85259 12920 ft 340 kts 235°
2026-05-07 17:36 31.92324 -110.87794 13489 ft 361 kts 253°
2026-05-07 17:36 31.91965 -110.90706 14464 ft 366 kts 270°
2026-05-07 17:37 31.92310 -110.93720 15149 ft 374 kts 287°
2026-05-07 17:37 31.93351 -110.96499 15801 ft 377 kts 304°
2026-05-07 17:37 31.94943 -110.98962 16375 ft 381 kts 311°
2026-05-07 17:37 31.96601 -111.01447 16955 ft 386 kts 309°
2026-05-07 17:38 31.98220 -111.03981 17465 ft 392 kts 308°
2026-05-07 17:38 31.99842 -111.06567 17976 ft 397 kts 308°
2026-05-07 17:38 32.01460 -111.09175 18669 ft 398 kts 308°
2026-05-07 17:38 32.03090 -111.11816 19196 ft 403 kts 308°
2026-05-07 17:39 32.04733 -111.14490 19874 ft 404 kts 308°
2026-05-07 17:39 32.06459 -111.17103 20518 ft 404 kts 317°
2026-05-07 17:39 32.08625 -111.19194 21087 ft 400 kts 333°
2026-05-07 17:39 32.11120 -111.20531 21688 ft 395 kts 347°
2026-05-07 17:40 32.13766 -111.21465 22265 ft 396 kts 348°
2026-05-07 17:40 32.16391 -111.22373 22919 ft 398 kts 349°
2026-05-07 17:40 32.19056 -111.23271 23705 ft 402 kts 349°
2026-05-07 17:40 32.21762 -111.24173 24666 ft 402 kts 349°
2026-05-07 17:41 32.24443 -111.25059 25364 ft 407 kts 349°
2026-05-07 17:41 32.27195 -111.25966 26102 ft 410 kts 349°
2026-05-07 17:41 32.29911 -111.26862 26932 ft 410 kts 349°
2026-05-07 17:41 32.32701 -111.27778 27553 ft 415 kts 349°
2026-05-07 17:42 32.35513 -111.28702 28273 ft 418 kts 349°
2026-05-07 17:42 32.38322 -111.29627 28907 ft 421 kts 349°
2026-05-07 17:42 32.41155 -111.30559 29550 ft 424 kts 349°
2026-05-07 17:42 32.44009 -111.31499 30131 ft 427 kts 349°
2026-05-07 17:43 32.46875 -111.32442 30520 ft 433 kts 349°
2026-05-07 17:43 32.49825 -111.33415 31015 ft 436 kts 349°
2026-05-07 17:43 32.52750 -111.34380 31432 ft 440 kts 349°
2026-05-07 17:43 32.55701 -111.35353 31786 ft 445 kts 349°
2026-05-07 17:44 32.58692 -111.36342 32159 ft 449 kts 348°
2026-05-07 17:44 32.61706 -111.37338 32544 ft 452 kts 348°
2026-05-07 17:44 32.64736 -111.38341 33023 ft 451 kts 348°
2026-05-07 17:44 32.67779 -111.39348 33203 ft 458 kts 348°
2026-05-07 17:45 32.70849 -111.40366 33591 ft 459 kts 348°
2026-05-07 17:45 32.73927 -111.41386 33832 ft 463 kts 348°
2026-05-07 17:45 32.77058 -111.42426 34224 ft 463 kts 348°
2026-05-07 17:45 32.80147 -111.43452 34611 ft 462 kts 348°
2026-05-07 17:46 32.83225 -111.44474 34933 ft 462 kts 348°
2026-05-07 17:46 32.86320 -111.45503 35267 ft 462 kts 348°
2026-05-07 17:46 32.89393 -111.46526 35656 ft 460 kts 347°
2026-05-07 17:46 32.92472 -111.47551 35966 ft 459 kts 347°
2026-05-07 17:47 32.95537 -111.48686 36162 ft 462 kts 341°
2026-05-07 17:47 32.98447 -111.50343 36321 ft 466 kts 333°
2026-05-07 17:47 33.01244 -111.52303 36566 ft 465 kts 333°
2026-05-07 17:47 33.04022 -111.54252 36766 ft 465 kts 332°
2026-05-07 17:48 33.06825 -111.56231 36937 ft 465 kts 332°
2026-05-07 17:48 33.09578 -111.58183 37112 ft 465 kts 332°
2026-05-07 17:48 33.12364 -111.60164 37231 ft 466 kts 332°
2026-05-07 17:48 33.15166 -111.62161 37398 ft 466 kts 332°
2026-05-07 17:49 33.20699 -111.66113 37526 ft 467 kts 331°
2026-05-07 17:49 33.23502 -111.68117 37630 ft 468 kts 331°
2026-05-07 17:49 33.26287 -111.70111 37730 ft 469 kts 331°
2026-05-07 17:50 33.31862 -111.74108 37901 ft 469 kts 331°
2026-05-07 17:50 33.37446 -111.78120 37955 ft 465 kts 331°
2026-05-07 17:51 33.42956 -111.82083 37982 ft 462 kts 331°
2026-05-07 17:51 33.48452 -111.86041 37992 ft 460 kts 331°
2026-05-07 17:52 33.53930 -111.89992 37996 ft 459 kts 332°
2026-05-07 17:52 33.59406 -111.93948 38011 ft 458 kts 331°
2026-05-07 17:53 33.64870 -111.97901 38008 ft 457 kts 332°
2026-05-07 17:53 33.70305 -112.01839 38011 ft 456 kts 331°
2026-05-07 17:54 33.73013 -112.03804 38124 ft 456 kts 332°
2026-05-07 17:54 33.75705 -112.05758 37998 ft 458 kts 332°
2026-05-07 17:54 33.81162 -112.09724 38021 ft 456 kts 332°
2026-05-07 17:55 33.86591 -112.13675 38054 ft 455 kts 332°
2026-05-07 17:55 33.91993 -112.17613 38085 ft 454 kts 332°
2026-05-07 17:56 33.97391 -112.21553 38098 ft 453 kts 332°
2026-05-07 17:56 34.02778 -112.25491 38093 ft 452 kts 332°
2026-05-07 17:57 34.07250 -112.28766 38090 ft 451 kts 332°
2026-05-07 17:57 34.13465 -112.33324 38119 ft 450 kts 332°
2026-05-07 17:58 34.18814 -112.37252 38135 ft 450 kts 332°
2026-05-07 17:58 34.24136 -112.41167 38143 ft 449 kts 331°
2026-05-07 17:59 34.29460 -112.45088 38182 ft 448 kts 331°
2026-05-07 17:59 34.34813 -112.49036 38182 ft 448 kts 331°
2026-05-07 18:00 34.40095 -112.52940 38208 ft 447 kts 331°
2026-05-07 18:00 34.45436 -112.56892 38226 ft 449 kts 331°
2026-05-07 18:01 34.50809 -112.60873 38222 ft 455 kts 332°
2026-05-07 18:01 34.56216 -112.64886 38240 ft 461 kts 331°
2026-05-07 18:02 34.64463 -112.71018 38219 ft 466 kts 331°
2026-05-07 18:03 34.69653 -112.75774 38241 ft 471 kts 316°
2026-05-07 18:03 34.73425 -112.82301 38243 ft 481 kts 298°
2026-05-07 18:04 34.76293 -112.89697 38237 ft 485 kts 297°
2026-05-07 18:04 34.79083 -112.97096 38251 ft 485 kts 297°
2026-05-07 18:05 34.81864 -113.04578 38259 ft 485 kts 297°
2026-05-07 18:05 34.84620 -113.12044 38266 ft 484 kts 297°
2026-05-07 18:06 34.87361 -113.19500 38236 ft 485 kts 297°
2026-05-07 18:06 34.90099 -113.26969 38236 ft 485 kts 297°
2026-05-07 18:07 34.92846 -113.34487 38220 ft 486 kts 297°
2026-05-07 18:07 34.95571 -113.41959 38227 ft 485 kts 297°
2026-05-07 18:08 34.98302 -113.49470 38226 ft 486 kts 297°
2026-05-07 18:08 35.01032 -113.56993 38191 ft 486 kts 298°
2026-05-07 18:09 35.03754 -113.64511 38203 ft 485 kts 298°
2026-05-07 18:09 35.06458 -113.71997 38223 ft 485 kts 297°
2026-05-07 18:10 35.09172 -113.79530 38187 ft 485 kts 297°
2026-05-07 18:10 35.11872 -113.87041 38201 ft 483 kts 297°
2026-05-07 18:11 35.14547 -113.94501 38183 ft 478 kts 297°
2026-05-07 18:11 35.17202 -114.01923 38167 ft 481 kts 298°
2026-05-07 18:12 35.19884 -114.09435 38151 ft 485 kts 298°
2026-05-07 18:12 35.22564 -114.16960 38153 ft 484 kts 297°
2026-05-07 18:13 35.25246 -114.24512 38143 ft 484 kts 297°
2026-05-07 18:13 35.27903 -114.32013 38120 ft 482 kts 297°
2026-05-07 18:14 35.30551 -114.39503 38103 ft 482 kts 298°
2026-05-07 18:14 35.31101 -114.41060 38093 ft 483 kts 297°
2026-05-07 18:15 35.33767 -114.48621 38097 ft 484 kts 298°
2026-05-07 18:15 35.36416 -114.56158 38113 ft 483 kts 298°
2026-05-07 18:16 35.39062 -114.63699 38119 ft 483 kts 298°
2026-05-07 18:16 35.41689 -114.71208 38092 ft 483 kts 297°
2026-05-07 18:17 35.44389 -114.78748 38061 ft 480 kts 302°
2026-05-07 18:17 35.48078 -114.85427 38094 ft 476 kts 310°
2026-05-07 18:18 35.51981 -114.91932 38098 ft 476 kts 310°
2026-05-07 18:18 35.55906 -114.98463 38119 ft 475 kts 310°
2026-05-07 18:19 35.59813 -115.04966 38120 ft 475 kts 310°
2026-05-07 18:19 35.63756 -115.11536 38124 ft 476 kts 310°
2026-05-07 18:20 35.67677 -115.18082 38115 ft 475 kts 310°
2026-05-07 18:20 35.71564 -115.24584 38127 ft 476 kts 310°
2026-05-07 18:21 35.75478 -115.31142 38125 ft 475 kts 310°
2026-05-07 18:21 35.79361 -115.37662 38242 ft 472 kts 310°
2026-05-07 18:21 35.81286 -115.40904 39127 ft 457 kts 310°
2026-05-07 18:22 35.83145 -115.44033 39303 ft 457 kts 311°
2026-05-07 18:22 35.86890 -115.50339 39365 ft 460 kts 311°
2026-05-07 18:23 35.90678 -115.56731 39462 ft 460 kts 311°
2026-05-07 18:23 35.92545 -115.59887 39576 ft 459 kts 310°
2026-05-07 18:23 35.94440 -115.63093 39685 ft 458 kts 310°
2026-05-07 18:23 35.96310 -115.66260 39800 ft 457 kts 310°
2026-05-07 18:24 35.98177 -115.69427 39900 ft 455 kts 310°
2026-05-07 18:24 36.01882 -115.75714 40038 ft 454 kts 310°
2026-05-07 18:25 36.05543 -115.81944 40124 ft 444 kts 310°
2026-05-07 18:25 36.09158 -115.88100 40144 ft 441 kts 310°
2026-05-07 18:26 36.11855 -115.92701 40141 ft 442 kts 310°
2026-05-07 18:26 36.15467 -115.98872 40113 ft 444 kts 310°
2026-05-07 18:27 36.19088 -116.05070 40106 ft 446 kts 310°
2026-05-07 18:27 36.22702 -116.11268 40129 ft 447 kts 310°
2026-05-07 18:28 36.26348 -116.17533 40142 ft 448 kts 310°
2026-05-07 18:28 36.30209 -116.23476 40169 ft 443 kts 320°
2026-05-07 18:29 36.34624 -116.28814 40149 ft 444 kts 320°
2026-05-07 18:29 36.39034 -116.34145 40136 ft 445 kts 320°
2026-05-07 18:30 36.43479 -116.39517 40129 ft 447 kts 320°
2026-05-07 18:30 36.47928 -116.44898 40117 ft 448 kts 320°
2026-05-07 18:31 36.52377 -116.50285 40122 ft 449 kts 320°
2026-05-07 18:31 36.56836 -116.55694 40140 ft 449 kts 319°
2026-05-07 18:32 36.61385 -116.60997 40157 ft 446 kts 327°
2026-05-07 18:32 36.66507 -116.65357 40154 ft 445 kts 329°
2026-05-07 18:33 36.71654 -116.69662 40153 ft 446 kts 329°
2026-05-07 18:33 36.76796 -116.73948 40148 ft 446 kts 329°
2026-05-07 18:34 36.81941 -116.78236 40166 ft 446 kts 329°
2026-05-07 18:34 36.87108 -116.82549 40183 ft 446 kts 329°
2026-05-07 18:35 36.92238 -116.86836 40200 ft 446 kts 329°
2026-05-07 18:35 36.97398 -116.91155 40215 ft 447 kts 329°
2026-05-07 18:36 37.02570 -116.95491 40228 ft 447 kts 329°
2026-05-07 18:36 37.07700 -116.99799 40230 ft 447 kts 329°
2026-05-07 18:37 37.12848 -117.04130 40236 ft 442 kts 329°
2026-05-07 18:37 37.17928 -117.08410 40243 ft 439 kts 329°
2026-05-07 18:38 37.22984 -117.12676 40246 ft 440 kts 329°
2026-05-07 18:38 37.28082 -117.16992 40260 ft 442 kts 327°
2026-05-07 18:39 37.32984 -117.21607 40271 ft 443 kts 326°
2026-05-07 18:39 37.37936 -117.26304 40279 ft 445 kts 325°
2026-05-07 18:40 37.42829 -117.31045 40287 ft 446 kts 325°
2026-05-07 18:40 37.47746 -117.35822 40291 ft 447 kts 325°
2026-05-07 18:41 37.52656 -117.40600 40290 ft 448 kts 325°
2026-05-07 18:41 37.57590 -117.45409 40287 ft 449 kts 325°
2026-05-07 18:42 37.62516 -117.50219 40284 ft 450 kts 324°
2026-05-07 18:42 37.67480 -117.55074 40281 ft 451 kts 324°
2026-05-07 18:43 37.72406 -117.59901 40280 ft 452 kts 324°
2026-05-07 18:43 37.77365 -117.64768 40287 ft 453 kts 324°
2026-05-07 18:44 37.82357 -117.69675 40291 ft 453 kts 324°
2026-05-07 18:44 37.87322 -117.74566 40286 ft 454 kts 324°
2026-05-07 18:45 37.92292 -117.79471 40277 ft 455 kts 323°
2026-05-07 18:45 37.97259 -117.84380 40264 ft 456 kts 324°
2026-05-07 18:46 38.02248 -117.89320 40254 ft 456 kts 323°
2026-05-07 18:46 38.07260 -117.94292 40256 ft 457 kts 323°
2026-05-07 18:47 38.12264 -117.99265 40265 ft 457 kts 323°
2026-05-07 18:47 38.17239 -118.04218 40272 ft 458 kts 323°
2026-05-07 18:48 38.22240 -118.09206 40289 ft 458 kts 323°
2026-05-07 18:48 38.27252 -118.14213 40292 ft 459 kts 323°
2026-05-07 18:49 38.32248 -118.19214 40298 ft 459 kts 323°
2026-05-07 18:49 38.37258 -118.24236 40295 ft 460 kts 323°
2026-05-07 18:50 38.42298 -118.29301 40293 ft 461 kts 323°
2026-05-07 18:50 38.47311 -118.34345 40285 ft 461 kts 323°
2026-05-07 18:51 38.52363 -118.39439 40281 ft 462 kts 323°
2026-05-07 18:51 38.57400 -118.44525 40267 ft 463 kts 323°
2026-05-07 18:52 38.62418 -118.49604 40256 ft 463 kts 323°
2026-05-07 18:52 38.67483 -118.54739 40261 ft 464 kts 323°
2026-05-07 18:53 38.72522 -118.59856 40259 ft 464 kts 323°
2026-05-07 18:53 38.77562 -118.64985 40251 ft 464 kts 323°
2026-05-07 18:54 38.82585 -118.70106 40248 ft 464 kts 322°
2026-05-07 18:54 38.84470 -118.72031 40247 ft 465 kts 322°
2026-05-07 18:55 38.89523 -118.77195 40221 ft 465 kts 322°
2026-05-07 18:55 38.94552 -118.82345 40225 ft 465 kts 322°
2026-05-07 18:56 38.99627 -118.87551 40227 ft 465 kts 322°
2026-05-07 18:56 39.04641 -118.92705 40227 ft 466 kts 322°
2026-05-07 18:57 39.09697 -118.97912 40233 ft 466 kts 322°
2026-05-07 18:57 39.14736 -119.03110 40238 ft 466 kts 322°
2026-05-07 18:58 39.19819 -119.08308 40232 ft 466 kts 326°
2026-05-07 18:58 39.25554 -119.11990 40233 ft 464 kts 342°
2026-05-07 18:59 39.31690 -119.14558 40240 ft 464 kts 342°
2026-05-07 18:59 39.37835 -119.17114 40245 ft 464 kts 342°
2026-05-07 19:00 39.43957 -119.19647 40244 ft 464 kts 342°
2026-05-07 19:00 39.50118 -119.22195 40256 ft 463 kts 342°
2026-05-07 19:01 39.56253 -119.24734 40250 ft 464 kts 342°
2026-05-07 19:01 39.62387 -119.27276 40243 ft 464 kts 342°
2026-05-07 19:02 39.68518 -119.29821 40253 ft 464 kts 342°
2026-05-07 19:02 39.74639 -119.32367 40259 ft 464 kts 342°
2026-05-07 19:03 39.77156 -119.33416 40242 ft 463 kts 342°
2026-05-07 19:03 39.83292 -119.35975 40260 ft 463 kts 342°
2026-05-07 19:04 39.88986 -119.38353 40239 ft 462 kts 342°
2026-05-07 19:04 39.95068 -119.40899 40233 ft 463 kts 342°
2026-05-07 19:05 40.01201 -119.43470 40204 ft 463 kts 342°
2026-05-07 19:05 40.07321 -119.46041 40209 ft 463 kts 342°
2026-05-07 19:06 40.13430 -119.48612 40217 ft 463 kts 342°
2026-05-07 19:06 40.22630 -119.52493 40235 ft 462 kts 342°
2026-05-07 19:07 40.28707 -119.55064 40244 ft 462 kts 342°
2026-05-07 19:07 40.34801 -119.57645 40237 ft 462 kts 342°
2026-05-07 19:08 40.40946 -119.60254 40224 ft 462 kts 342°
2026-05-07 19:08 40.47017 -119.62836 40214 ft 461 kts 342°
2026-05-07 19:09 40.53120 -119.65437 40212 ft 462 kts 341°
2026-05-07 19:09 40.59233 -119.68047 40222 ft 461 kts 341°
2026-05-07 19:10 40.65291 -119.70637 40234 ft 461 kts 341°
2026-05-07 19:10 40.71406 -119.73258 40239 ft 461 kts 341°
2026-05-07 19:11 40.77481 -119.75867 40253 ft 461 kts 341°
2026-05-07 19:11 40.83577 -119.78490 40242 ft 460 kts 341°
2026-05-07 19:12 40.89634 -119.81100 40234 ft 460 kts 341°
2026-05-07 19:12 40.95722 -119.83730 40241 ft 460 kts 341°
2026-05-07 19:13 41.01801 -119.86361 40232 ft 461 kts 341°
2026-05-07 19:13 41.07862 -119.88989 40236 ft 460 kts 341°
2026-05-07 19:14 41.13974 -119.91605 40240 ft 461 kts 341°
2026-05-07 19:14 41.20034 -119.94196 40235 ft 458 kts 341°
2026-05-07 19:15 41.26073 -119.96783 40228 ft 457 kts 341°
2026-05-07 19:15 41.32136 -119.99385 40234 ft 458 kts 341°
2026-05-07 19:16 41.38191 -120.01989 40226 ft 459 kts 341°
2026-05-07 19:16 41.44236 -120.04594 40229 ft 459 kts 341°
2026-05-07 19:17 41.50310 -120.07216 40234 ft 458 kts 341°
2026-05-07 19:17 41.56345 -120.09827 40240 ft 456 kts 341°
2026-05-07 19:18 41.62378 -120.12442 40238 ft 456 kts 341°
2026-05-07 19:18 41.68393 -120.15055 40232 ft 456 kts 341°
2026-05-07 19:19 41.74408 -120.17673 40235 ft 456 kts 341°
2026-05-07 19:19 41.80430 -120.20299 40234 ft 457 kts 341°
2026-05-07 19:20 41.86449 -120.22929 40226 ft 455 kts 341°
2026-05-07 19:20 41.92487 -120.25571 40227 ft 456 kts 341°
2026-05-07 19:21 41.98458 -120.28190 40224 ft 455 kts 341°
2026-05-07 19:21 42.04467 -120.30831 40221 ft 455 kts 341°
2026-05-07 19:22 42.10478 -120.33478 40212 ft 454 kts 340°
2026-05-07 19:22 42.16481 -120.36128 40211 ft 455 kts 340°
2026-05-07 19:23 42.22494 -120.38787 40209 ft 455 kts 340°
2026-05-07 19:23 42.28506 -120.41451 40217 ft 455 kts 341°
2026-05-07 19:24 42.34488 -120.44106 40217 ft 455 kts 341°
2026-05-07 19:24 42.40482 -120.46771 40210 ft 454 kts 340°
2026-05-07 19:25 42.46458 -120.49435 40211 ft 454 kts 340°
2026-05-07 19:25 42.52305 -120.52549 40220 ft 453 kts 335°
2026-05-07 19:26 42.58057 -120.56004 40206 ft 453 kts 335°
2026-05-07 19:26 42.63810 -120.59479 40202 ft 454 kts 335°
2026-05-07 19:27 42.69558 -120.62962 40193 ft 453 kts 335°
2026-05-07 19:27 42.75318 -120.66462 40183 ft 452 kts 334°
2026-05-07 19:28 42.81027 -120.69938 40179 ft 452 kts 334°
2026-05-07 19:28 42.86773 -120.73445 40179 ft 452 kts 334°
2026-05-07 19:29 42.92513 -120.76954 40182 ft 453 kts 334°
2026-05-07 19:29 42.98224 -120.80454 40188 ft 451 kts 334°
2026-05-07 19:30 43.03937 -120.83963 40189 ft 452 kts 334°
2026-05-07 19:30 43.09685 -120.87500 40191 ft 452 kts 334°
2026-05-07 19:31 43.15395 -120.91019 40187 ft 452 kts 334°
2026-05-07 19:31 43.21131 -120.94564 40188 ft 453 kts 334°
2026-05-07 19:32 43.26841 -120.98100 40193 ft 452 kts 334°
2026-05-07 19:32 43.32566 -121.01652 40184 ft 451 kts 334°
2026-05-07 19:33 43.38273 -121.05199 40176 ft 451 kts 334°
2026-05-07 19:33 43.43943 -121.08733 40189 ft 451 kts 334°
2026-05-07 19:34 43.49635 -121.12285 40179 ft 450 kts 333°
2026-05-07 19:34 43.55340 -121.15854 40180 ft 451 kts 333°
2026-05-07 19:35 43.61059 -121.19440 40183 ft 450 kts 333°
2026-05-07 19:35 43.66734 -121.23004 40179 ft 449 kts 333°
2026-05-07 19:36 43.72383 -121.26560 40182 ft 448 kts 333°
2026-05-07 19:36 43.78064 -121.30145 40179 ft 449 kts 333°
2026-05-07 19:37 43.83700 -121.33707 40176 ft 448 kts 333°
2026-05-07 19:37 43.89360 -121.37293 40166 ft 448 kts 333°
2026-05-07 19:38 43.95022 -121.40888 40157 ft 447 kts 333°
2026-05-07 19:38 44.00649 -121.44469 40154 ft 447 kts 333°
2026-05-07 19:39 44.06270 -121.48052 40155 ft 447 kts 333°
2026-05-07 19:39 44.11933 -121.51671 40146 ft 447 kts 333°
2026-05-07 19:40 44.17576 -121.55284 40145 ft 448 kts 333°
2026-05-07 19:40 44.23216 -121.58902 40145 ft 448 kts 333°
2026-05-07 19:41 44.28853 -121.62526 40151 ft 447 kts 333°
2026-05-07 19:41 44.34529 -121.66183 40157 ft 447 kts 332°
2026-05-07 19:42 44.40159 -121.69819 40150 ft 448 kts 332°
2026-05-07 19:42 44.45802 -121.73471 40147 ft 448 kts 332°
2026-05-07 19:43 44.51467 -121.77144 40139 ft 448 kts 332°
2026-05-07 19:43 44.57072 -121.80787 40135 ft 447 kts 332°
2026-05-07 19:44 44.62735 -121.84476 40128 ft 447 kts 332°
2026-05-07 19:44 44.68395 -121.88170 40131 ft 447 kts 332°
2026-05-07 19:45 44.74036 -121.91859 40123 ft 448 kts 332°
2026-05-07 19:45 44.79652 -121.95541 40120 ft 449 kts 332°
2026-05-07 19:46 44.85312 -121.99258 40122 ft 449 kts 332°
2026-05-07 19:46 44.90939 -122.02962 40123 ft 449 kts 332°
2026-05-07 19:47 44.96594 -122.06694 40114 ft 450 kts 332°
2026-05-07 19:47 45.02305 -122.10471 40113 ft 450 kts 332°
2026-05-07 19:48 45.07996 -122.14242 40113 ft 449 kts 332°
2026-05-07 19:48 45.13670 -122.18009 40113 ft 449 kts 332°
2026-05-07 19:49 45.19340 -122.21784 40111 ft 450 kts 332°
2026-05-07 19:49 45.25003 -122.25562 40111 ft 451 kts 332°
2026-05-07 19:50 45.30626 -122.29322 40108 ft 450 kts 332°
2026-05-07 19:50 45.36266 -122.33101 40110 ft 450 kts 331°
2026-05-07 19:51 45.41908 -122.36890 40099 ft 450 kts 331°
2026-05-07 19:51 45.44775 -122.38821 39475 ft 458 kts 332°
2026-05-07 19:51 45.47651 -122.40756 38835 ft 458 kts 331°
2026-05-07 19:52 45.50526 -122.42694 38192 ft 454 kts 332°
2026-05-07 19:52 45.53356 -122.44604 37802 ft 446 kts 332°
2026-05-07 19:52 45.56123 -122.46469 37378 ft 436 kts 332°
2026-05-07 19:52 45.58837 -122.48309 36584 ft 434 kts 331°
2026-05-07 19:53 45.61556 -122.50150 35867 ft 431 kts 332°
2026-05-07 19:53 45.64239 -122.51971 35190 ft 429 kts 332°
2026-05-07 19:53 45.66932 -122.53800 34570 ft 433 kts 332°
2026-05-07 19:53 45.69640 -122.55641 33928 ft 439 kts 332°
2026-05-07 19:54 45.72423 -122.57529 33278 ft 444 kts 333°
2026-05-07 19:54 45.75332 -122.59058 32597 ft 450 kts 342°
2026-05-07 19:54 45.78400 -122.59962 32014 ft 451 kts 347°
2026-05-07 19:54 45.81485 -122.60744 31403 ft 453 kts 347°
2026-05-07 19:55 45.84576 -122.61530 30769 ft 455 kts 347°
2026-05-07 19:55 45.87687 -122.62312 30156 ft 457 kts 347°
2026-05-07 19:55 45.90796 -122.63092 29577 ft 459 kts 347°
2026-05-07 19:55 45.93932 -122.63875 29018 ft 460 kts 347°
2026-05-07 19:56 45.97088 -122.64661 28466 ft 457 kts 347°
2026-05-07 19:56 46.00166 -122.65427 27946 ft 452 kts 347°
2026-05-07 19:56 46.03265 -122.66200 27434 ft 447 kts 347°
2026-05-07 19:56 46.06302 -122.66956 26938 ft 444 kts 347°
2026-05-07 19:57 46.09328 -122.67709 26440 ft 442 kts 348°
2026-05-07 19:57 46.12382 -122.68332 25918 ft 441 kts 349°
2026-05-07 19:57 46.15391 -122.68922 25400 ft 438 kts 349°
2026-05-07 19:57 46.18425 -122.69520 24882 ft 435 kts 349°
2026-05-07 19:58 46.21383 -122.70104 24384 ft 431 kts 349°
2026-05-07 19:58 46.24339 -122.70690 23895 ft 428 kts 349°
2026-05-07 19:58 46.27260 -122.71270 23407 ft 426 kts 349°
2026-05-07 19:58 46.30188 -122.71851 22913 ft 424 kts 350°
2026-05-07 19:59 46.33111 -122.72217 22436 ft 423 kts 356°
2026-05-07 19:59 46.36063 -122.72329 21966 ft 420 kts 356°
2026-05-07 19:59 46.38964 -122.72448 21500 ft 417 kts 356°
2026-05-07 19:59 46.41810 -122.72557 21050 ft 414 kts 356°
2026-05-07 20:00 46.44693 -122.72666 20586 ft 412 kts 356°
2026-05-07 20:00 46.47542 -122.72772 20127 ft 410 kts 356°
2026-05-07 20:00 46.50371 -122.72875 19676 ft 408 kts 356°
2026-05-07 20:00 46.53215 -122.72978 19221 ft 405 kts 356°
2026-05-07 20:01 46.55986 -122.73079 18781 ft 402 kts 356°
2026-05-07 20:01 46.58749 -122.73180 18356 ft 399 kts 356°
2026-05-07 20:01 46.61528 -122.73280 17918 ft 398 kts 357°
2026-05-07 20:01 46.64301 -122.73380 17470 ft 396 kts 357°
2026-05-07 20:02 46.67028 -122.73480 16966 ft 395 kts 357°
2026-05-07 20:02 46.69766 -122.73578 16544 ft 389 kts 356°
2026-05-07 20:02 46.72401 -122.73672 16456 ft 372 kts 356°
2026-05-07 20:02 46.74908 -122.73761 16469 ft 354 kts 357°
2026-05-07 20:03 46.77307 -122.73407 16465 ft 340 kts 13°
2026-05-07 20:03 46.79465 -122.72088 16306 ft 344 kts 29°
2026-05-07 20:03 46.81453 -122.70046 15795 ft 354 kts 35°
2026-05-07 20:03 46.83414 -122.67865 15133 ft 358 kts 35°
2026-05-07 20:04 46.85360 -122.65681 14815 ft 351 kts 35°
2026-05-07 20:04 46.87323 -122.63505 14272 ft 353 kts 36°
2026-05-07 20:04 46.89243 -122.61346 13815 ft 351 kts 36°
2026-05-07 20:04 46.91122 -122.59218 13753 ft 334 kts 36°
2026-05-07 20:05 46.92922 -122.57208 13751 ft 316 kts 31°
2026-05-07 20:05 46.94834 -122.55862 13727 ft 302 kts 16°
2026-05-07 20:05 46.96855 -122.54942 13337 ft 309 kts 15°
2026-05-07 20:05 46.98917 -122.54008 12964 ft 308 kts 15°
2026-05-07 20:06 47.00943 -122.53105 12601 ft 306 kts 14°
2026-05-07 20:06 47.02959 -122.52214 12253 ft 303 kts 14°
2026-05-07 20:06 47.04965 -122.51331 11932 ft 299 kts 15°
2026-05-07 20:06 47.06972 -122.50451 11442 ft 302 kts 14°
2026-05-07 20:07 47.08967 -122.49865 11326 ft 289 kts
2026-05-07 20:07 47.10983 -122.49499 10981 ft 291 kts
2026-05-07 20:07 47.12980 -122.49124 10629 ft 292 kts
2026-05-07 20:07 47.14989 -122.48753 10244 ft 291 kts
2026-05-07 20:08 47.17003 -122.48382 9908 ft 288 kts
2026-05-07 20:08 47.18932 -122.48029 9863 ft 275 kts
2026-05-07 20:08 47.20825 -122.47732 9698 ft 271 kts
2026-05-07 20:08 47.22710 -122.47447 9453 ft 273 kts
2026-05-07 20:09 47.24591 -122.47160 9198 ft 274 kts
2026-05-07 20:09 47.26476 -122.46872 8930 ft 273 kts
2026-05-07 20:09 47.28342 -122.46587 8682 ft 270 kts
2026-05-07 20:10 47.32027 -122.46022 8296 ft 265 kts
2026-05-07 20:10 47.33885 -122.45737 8034 ft 269 kts
2026-05-07 20:10 47.35729 -122.45532 7668 ft 269 kts 360°
2026-05-07 20:10 47.37580 -122.45538 7404 ft 257 kts 359°
2026-05-07 20:11 47.39309 -122.45534 7227 ft 248 kts 359°
2026-05-07 20:11 47.41061 -122.45533 6923 ft 253 kts 359°
2026-05-07 20:11 47.42813 -122.45533 6638 ft 254 kts 359°
2026-05-07 20:11 47.44593 -122.45533 6327 ft 252 kts 360°
2026-05-07 20:12 47.46332 -122.45534 6082 ft 248 kts 360°
2026-05-07 20:12 47.48009 -122.45534 6010 ft 237 kts 360°
2026-05-07 20:12 47.49620 -122.45535 6026 ft 221 kts
2026-05-07 20:12 47.51128 -122.45538 5792 ft 222 kts 359°
2026-05-07 20:13 47.52681 -122.45580 5457 ft 222 kts 359°
2026-05-07 20:13 47.54218 -122.45624 5126 ft 223 kts 359°
2026-05-07 20:13 47.55771 -122.45669 4846 ft 221 kts 359°
2026-05-07 20:13 47.57298 -122.45712 4555 ft 219 kts 359°
2026-05-07 20:14 47.58826 -122.45756 4215 ft 220 kts 359°
2026-05-07 20:14 47.60337 -122.45798 3983 ft 216 kts 359°
2026-05-07 20:14 47.61822 -122.45841 3934 ft 210 kts 359°
2026-05-07 20:14 47.63291 -122.45882 3945 ft 217 kts 359°
2026-05-07 20:15 47.64833 -122.45924 3944 ft 221 kts 359°
2026-05-07 20:15 47.66356 -122.45967 3933 ft 218 kts 359°
2026-05-07 20:15 47.67855 -122.46009 3941 ft 218 kts 359°
2026-05-07 20:15 47.69383 -122.46025 3937 ft 219 kts
2026-05-07 20:16 47.70775 -122.45239 3967 ft 218 kts 39°
2026-05-07 20:16 47.71612 -122.43403 3971 ft 219 kts 74°
2026-05-07 20:16 47.71682 -122.41202 3952 ft 209 kts 94°
2026-05-07 20:16 47.71534 -122.39108 3922 ft 197 kts 95°
2026-05-07 20:17 47.71388 -122.37119 3944 ft 198 kts 95°
2026-05-07 20:17 47.71181 -122.35044 3949 ft 205 kts 103°
2026-05-07 20:17 47.70459 -122.33259 3958 ft 204 kts 139°
2026-05-07 20:17 47.69323 -122.32067 3976 ft 201 kts 154°
2026-05-07 20:18 47.67971 -122.31728 3951 ft 193 kts 180°
2026-05-07 20:18 47.66623 -122.31722 3937 ft 195 kts 179°
2026-05-07 20:18 47.65264 -122.31696 3938 ft 196 kts 179°
2026-05-07 20:18 47.63891 -122.31685 3778 ft 198 kts 180°
2026-05-07 20:19 47.62580 -122.31683 3549 ft 181 kts 180°
2026-05-07 20:19 47.61342 -122.31684 3295 ft 178 kts 180°
2026-05-07 20:19 47.60087 -122.31689 3065 ft 182 kts 180°
2026-05-07 20:19 47.58821 -122.31695 2818 ft 182 kts 180°
2026-05-07 20:20 47.57557 -122.31702 2566 ft 180 kts 180°
2026-05-07 20:20 47.56346 -122.31711 2310 ft 170 kts 180°
2026-05-07 20:20 47.55209 -122.31720 2062 ft 155 kts 180°
2026-05-07 20:20 47.54137 -122.31728 1877 ft 163 kts 180°
2026-05-07 20:21 47.52980 -122.31737 1695 ft 166 kts 180°
2026-05-07 20:21 47.51874 -122.31746 1450 ft 153 kts 180°
2026-05-07 20:21 47.50773 -122.31754 1267 ft 159 kts 180°
2026-05-07 20:21 47.49709 -122.31763 1036 ft 150 kts 180°
2026-05-07 20:22 47.48669 -122.31773 843 ft 147 kts 181°
2026-05-07 20:22 47.47646 -122.31784 664 ft 151 kts 180°
2026-05-07 20:22 47.46603 -122.31785 429 ft 145 kts 181°
2026-05-07 20:22 47.45634 -122.31798 339 ft 129 kts 180°
2026-05-07 20:23 47.44932 -122.31800 381 ft 72 kts 182°
2026-05-07 20:23 47.44614 -122.31759 366 ft 35 kts 156°
2026-05-07 20:23 47.44404 -122.31580 366 ft 33 kts 150°
2026-05-07 20:23 47.44244 -122.31367 372 ft 29 kts 121°
2026-05-07 20:24 47.44162 -122.31108 376 ft 26 kts 131°
2026-05-07 20:24 47.44000 -122.30964 372 ft 27 kts 150°
2026-05-07 20:24 47.43900 -122.30769 372 ft 23 kts 101°
2026-05-07 20:24 47.43939 -122.30563 376 ft 19 kts 57°
2026-05-07 20:25 47.43991 -122.30407 381 ft 14 kts 89°
2026-05-07 20:25 47.44017 -122.30276 382 ft 12 kts 52°
2026-05-07 20:25 47.44025 -122.30263 382 ft 0 kts 52°
2026-05-07 20:25 47.44037 -122.30240 382 ft 9 kts 53°